Total_Precipitation_Accumulation
0.69 0.69 0.80 0.90 0.98 1.09 1.22 1.35 1.82 2.30 2.44 2.48 2.74 2.88 2.88 2.82 2.37 1.94 1.82 1.80 1.64 1.37
0.66 0.69 0.76 0.82 0.86 0.88 0.98 1.11 1.32 1.33 1.50 1.51 1.55 1.54 1.66 1.78 1.82 1.71 1.41 1.49 1.68 1.61
0.60 0.60 0.56 0.51 0.56 0.60 0.63 0.65 0.64 0.64 0.64 0.78 0.96 1.00 1.00 1.10 1.52 1.81 1.44 1.35 1.71 1.62
0.83 1.15 1.17 0.90 0.89 0.86 0.76 0.70 0.66 0.62 0.62 0.53 0.57 0.71 0.67 0.68 0.99 1.47 1.66 1.55 1.72 1.92
1.77 1.50 1.60 1.52 1.41 1.36 0.98 0.84 0.81 0.75 0.75 0.69 0.71 0.65 0.54 0.50 0.73 1.06 1.54 1.62 1.58 1.68
1.84 2.14 1.67 1.61 1.69 1.44 1.16 0.97 0.94 0.87 0.86 0.73 0.74 0.68 0.60 0.55 0.62 0.96 1.26 1.49 1.76 1.73
1.34 1.68 1.91 1.42 1.33 1.31 1.30 1.16 0.98 0.88 0.97 1.15 1.09 0.87 0.78 0.76 0.96 1.00 1.19 1.49 1.73 1.89
1.39 1.49 1.89 1.59 1.54 1.45 1.46 1.78 1.49 1.32 1.06 1.00 1.05 1.15 1.23 1.19 1.00 1.03 1.14 1.16 1.25 1.51
1.32 1.39 1.40 1.77 1.76 1.89 1.49 1.66 1.87 1.72 1.52 1.46 1.29 1.88 1.65 1.37 1.20 1.08 0.93 0.84 0.69 0.94
1.82 1.84 1.66 1.47 1.66 1.92 2.15 1.97 1.82 2.19 2.19 2.04 2.07 2.31 2.18 2.02 1.54 1.47 1.52 1.39 1.24 0.97
2.00 1.99 1.92 2.01 1.75 1.71 2.09 2.19 2.26 2.00 2.40 2.22 2.12 2.77 2.46 2.20 1.86 1.91 1.99 2.26 2.09 1.87
2.33 2.08 1.73 1.83 2.29 2.02 1.89 1.96 1.97 2.06 1.72 1.87 2.50 2.81 2.68 2.69 1.85 1.87 1.94 2.11 2.35 2.42
2.10 2.34 2.70 2.39 2.27 2.63 2.32 2.09 1.88 1.81 1.94 2.19 2.19 2.85 2.65 2.65 2.80 2.87 2.94 2.42 2.43 3.17
1.57 1.79 2.17 2.45 2.55 2.39 2.47 2.27 2.18 2.17 2.18 2.18 2.39 2.71 2.83 2.36 2.13 2.56 2.90 3.02 2.92 3.17